Flag for Germany Weather past 2 weeks in Gifhorn, Lower Saxony, Germany

Now
55 °F

Clear.


Feels Like: 53 °F
Forecast: 50 / 63 °F
Wind: 8 mph from Southwest

Location: Braunschweig

Current Time: Aug 23, 2014 at 2:16:45 AM

Latest Report: Aug 22, 2014 at 11:50 PM


Visibility: 10 mi

Pressure: 29.86 "Hg

Humidity: 100%

Dew point: 55 °F

Location of GifhornLocation

Historic Weather in Gifhorn — Graph

°F

Gifhorn temperature yesterday

Maximum temperature yesterday: 66 °F (at 1:50 PM)
Minimum temperature yesterday: 54 °F (at 6:50 AM)
Average temperature yesterday: 61 °F

Past Weeks' High & Low Weather Summary

 TemperatureHumidityPressure
High81 °F (Aug 8, 5:20 PM)100% (Aug 8, 6:50 AM)30.01 "Hg (Aug 8, 6:50 AM)
Low48 °F (Aug 20, 6:50 AM)33% (Aug 11, 4:50 PM)29.59 "Hg (Aug 18, 1:50 PM)
Average63 °F68%29.84 "Hg
* Reported Aug 8 6:50 AM — Aug 22 11:50 PM, Gifhorn, Weather by CustomWeather, © 2014

Note: Actual official high and low records may vary slightly from our data, if they occured in-between our weather recording intervals... More about our weather records

Advertising

Gifhorn weather history for previous 24 hours

 ConditionsComfort  
Time TempWeatherWind HumidityBarometerVisibility
11:50 PM
Aug 22
55 °FClear.8 mph100%29.86 "Hg10 mi
11:20 PM55 °FClear.9 mph94%29.86 "Hg10 mi
10:50 PM55 °FMostly cloudy.9 mph100%29.89 "HgN/A
10:20 PM55 °FOvercast.9 mph100%29.86 "HgN/A
9:50 PM55 °FMostly cloudy.12 mph94%29.86 "HgN/A
9:20 PM55 °FPassing clouds.5 mph94%29.86 "HgN/A
8:50 PM57 °FPassing clouds.8 mph88%29.86 "HgN/A
8:20 PM57 °FSunny.3 mph88%29.83 "Hg10 mi
7:20 PM61 °FPassing clouds.5 mph68%29.83 "HgN/A
6:50 PM63 °FClear.10 mph56%29.83 "HgN/A
6:20 PM64 °FSunny.10 mph52%29.83 "Hg10 mi
5:50 PM66 °FPassing clouds.13 mph46%29.86 "HgN/A
5:20 PM66 °FSunny.14 mph46%29.86 "Hg10 mi
4:50 PM66 °FSunny.15 mph43%29.86 "Hg10 mi
4:20 PM66 °FSunny.15 mph49%29.86 "Hg10 mi
3:50 PM66 °FPassing clouds.8 mph49%29.86 "HgN/A
3:20 PM63 °FSunny.6 mph59%29.86 "Hg10 mi
2:50 PM61 °FScattered showers. Mostly cloudy.12 mph63%29.89 "HgN/A
2:20 PM64 °FSprinkles. Broken clouds.9 mph49%29.89 "HgN/A
1:50 PM66 °FPassing clouds.16 mph49%29.89 "HgN/A
1:20 PM64 °FPassing clouds.12 mph52%29.89 "HgN/A
12:50 PM64 °FSunny.15 mph52%29.89 "Hg10 mi
12:20 PM64 °FSunny.16 mph49%29.89 "Hg10 mi
11:50 AM64 °FPassing clouds.13 mph52%29.92 "HgN/A
11:20 AM64 °FPassing clouds.14 mph49%29.92 "HgN/A
10:50 AM63 °FSunny.13 mph52%29.92 "Hg10 mi
10:20 AM63 °FPassing clouds.13 mph52%29.92 "HgN/A
9:50 AM63 °FSunny.12 mph56%29.92 "Hg10 mi
9:20 AM61 °FSunny.9 mph63%29.92 "Hg10 mi
8:50 AM59 °FSunny.10 mph63%29.92 "Hg10 mi
8:20 AM57 °FSunny.10 mph67%29.92 "Hg10 mi
7:50 AM55 °FSunny.8 mph77%29.92 "Hg10 mi
7:20 AM54 °FSunny.6 mph77%29.92 "Hg10 mi
6:50 AM54 °FClear.6 mph77%29.92 "Hg10 mi
Weather by CustomWeather, © 2014

See weather overviewHow to use our weather pages